COSMOS 2211

Satellite information

Favourite Embed

Satellite Type and Status

PAYLOADIN ORBIT

Key statistics

Satellite COSMOS 2211 at a glance.

Uptime

12061

Days in orbit

Revolutions

≈ 12.6

Per day

Orbit

LEO

Low Earth Orbit

Inclination

82.6

Latest

Satellite identification and parameters

Extended collection of information and parameters for COSMOS 2211.

Object identification

Identified? True

Debris? False

Object name: COSMOS 2211

International designator: 1992-068A

Object number (NORAD): 22182

Object ID (CCSDS): 22182

Country: COMMONWEALTH OF INDEPENDENT STATES (CIS)

Current information (Y/N): Y

RCS size: LARGE

Orbital parameters

Period: 113.919 minutes

Inclination: 82.5907 deg

SMA: 7784.374 km

Apoapsis: 1411.765 km

Periapsis: 1400.713 km

RAAN: 110.464 deg

Eccentricy: 0.00070988

Argument of periapsis: 326.4643 deg

Mean anomaly: 147.4621 deg

Mean motion: 12.64058686 rev/day

Mean motion (dot): 0.00000012 rev/day2

B* drag term: 0.000006058415 1/REarth

Two-line elements (TLE)

Creation date: Oct. 27, 2025, 2:46 a.m.

Reference frame: TEME

Reference center: EARTH

Epoch: Oct. 26, 2025, 10:47 p.m. UTC

TLE line 0: 0 COSMOS 2211

TLE line 1: 1 22182U 92068A 25299.94983069 .00000012 00000-0 60584-5 0 9996

TLE line 2: 2 22182 82.5907 110.4640 0007099 326.4643 147.4621 12.64058686523277

Live tracking on map

Real-time ground track for satellite COSMOS 2211.

In-orbit conjunctions

A list of the most updated potential collisions computed for object COSMOS 2211.

Target Orbit TCA Probability of collision Miss distance Type
COSMOS 2092 LEO 2024-08-22 23:59:41 0.000232995 46.0 (m) PAYLOAD
COSMOS 2491 DEB LEO 2024-07-16 02:15:37 0.0002151916 641.0 (m) DEBRIS

Associated space launch

Second generation store-dump military communications satellite

COSMOS 2211 was lifted into orbit during the mission ‘Tsiklon-3 | Strela-3 83 to 88’, on board a Tsiklon-3 space rocket.

The launch took place on Oct. 20, 1992, 12:58 p.m. from 32/1.

For more information about the launch, click the button.

Launch to space Tsiklon-3 | Strela-3 83 to 88
Tsiklon-3 | Strela-3 83 to 88

Agency: N/A

Status: Launch Successful

Launch date: Oct. 20, 1992, 12:58 p.m. UTC

Rocket: Tsiklon-3

Launch pad: 32/1

Location: Plesetsk Cosmodrome, Russian Federation

...

Latest news about this satellite

There are no fresh news available about this satellite. Check back as we update our databases every day.


Newsletter sign-up

Weekly statistics, charts and insights to help you stay on top of the space industry.